Location: Colebrook
(42.0017°N, 73.0973°W)
Time: 08:47:44
(UTC-04:00)

ISS - Pass Details

Date: 05 October 2021
Orbit: 417 x 423 km, 51.6° (Epoch: 16 October)

Event Time Altitude Azimuth Distance (km) Brightness Sun altitude
Rises 20:34:58 0° 288° (WNW) 2,362 1.5 -24.5°
Reaches altitude 10° 20:37:52 10° 261° (W) 1,495 -0.1 -25.0°
Maximum altitude 20:39:35 13° 230° (SW) 1,300 -0.9 -25.3°
Enters shadow 20:39:52 13° 224° (SW) 1,305 -1.0 -25.3°
